Lid_Strength_Index
3 5 5 7 13 14 15 12 8 8 9 8 7 7 7 6 8 11 3 1 1 1 -0 -0 -0 -1 -1 -1 -1 -1 -1 -1 -1 -1 -1 -1 -1 -1 -1 -1 -1 -1 -1 -1 -1 -1 -2 -2 -2
4 5 6 10 15 17 15 10 10 10 9 8 7 8 6 7 4 4 3 1 0 0 0 -0 -0 -0 -1 -1 -1 -1 -1 -1 -1 -1 -1 -1 -1 -1 -1 -1 -1 -1 -1 -1 -1 -2 -2 -2 -2
5 5 10 13 15 16 14 10 9 8 8 8 8 7 5 6 3 3 2 1 0 0 0 -0 -0 -0 -1 -1 -1 -1 -1 -1 -1 -1 -1 -1 -1 -1 -1 -1 -1 -1 -1 -1 -1 -2 -2 -2 -2
7 8 9 14 15 13 11 10 8 7 7 7 7 7 4 2 3 2 1 0 1 0 0 -0 -0 -0 -1 -1 -1 -1 -1 -1 -1 -1 -1 -1 -1 -1 -1 -1 -1 -2 -2 -2 -2 -2 -3 -2 -2
7 9 13 14 14 12 10 8 8 9 8 8 7 8 5 3 2 2 1 1 1 1 0 -0 -0 -0 -1 -1 -1 -1 -1 -1 -1 -1 -1 -1 -1 -1 -1 -1 -1 -2 -2 -2 -2 -2 -2 -3 -3
8 8 14 15 13 10 8 8 8 9 8 7 7 7 6 4 3 3 1 2 1 1 0 -0 -0 -0 -0 -0 -1 -1 -1 -1 -1 -1 -1 -1 -1 -1 -1 -1 -2 -2 -2 -2 -2 -2 -2 -3 -2
8 10 11 11 11 10 8 7 7 8 7 7 6 7 6 5 4 3 2 1 1 0 0 0 0 -0 -0 -0 -0 -0 -0 -0 -1 -1 -1 -1 -1 -1 -1 -1 -1 -2 -2 -2 -2 -2 -2 -2 -2
7 9 10 10 10 10 6 7 7 8 7 5 4 7 8 5 4 4 3 2 1 1 0 0 0 0 0 -0 -1 -0 -0 -0 -1 -1 -1 -1 -1 -1 -1 -1 -1 -2 -2 -2 -2 -2 -2 -2 -2
6 11 12 10 9 8 6 8 6 6 7 5 4 4 4 3 4 5 5 3 2 1 1 0 0 0 0 0 -0 -0 -1 -1 -1 -1 -1 -0 0 -0 -1 -1 -2 -2 -2 -2 -2 -2 -2 -2 -2
9 11 10 7 7 8 7 7 7 6 7 7 5 3 2 4 5 5 6 6 3 2 2 1 1 0 0 -0 0 0 -0 -0 -0 -0 -0 0 1 0 -0 -1 -2 -2 -2 -2 -2 -2 -2 -1 0
8 10 8 7 6 5 7 7 7 7 8 7 6 5 3 4 5 4 5 6 5 2 1 1 1 0 0 1 -0 -0 -0 0 0 -0 0 1 0 1 0 1 0 0 -1 -0 -1 -1 -0 -0 0
10 8 7 7 5 6 6 6 7 7 6 4 4 4 4 5 5 5 5 4 3 2 2 2 1 1 1 0 0 0 0 1 1 1 0 0 0 0 1 0 0 0 0 0 0 -0 0 0 1
10 9 7 6 6 6 5 6 7 7 6 4 4 4 5 5 5 5 5 4 3 3 2 3 1 1 1 1 0 0 0 0 0 0 0 0 0 0 0 1 0 0 0 1 1 1 1 1 0
9 9 8 8 8 7 7 7 7 6 6 6 5 4 4 5 5 5 5 5 3 2 2 2 1 1 0 1 1 0 1 1 0 0 0 0 0 0 0 0 0 0 0 1 1 1 1 1 1
8 10 9 8 9 9 7 9 9 6 5 7 7 5 4 5 4 4 5 4 2 2 2 2 3 1 1 1 1 0 0 1 1 0 0 0 0 1 0 0 0 1 1 1 1 1 1 1 1
10 11 13 10 8 7 9 11 8 6 6 6 6 7 6 5 4 5 4 2 2 2 2 2 2 1 1 1 1 1 0 0 0 0 -0 -0 -0 0 0 1 1 1 1 0 1 2 2 2 1
12 14 13 10 7 7 9 10 7 6 6 7 6 6 6 7 5 5 3 2 2 2 2 2 2 2 1 1 1 1 0 0 0 1 0 0 -0 -0 0 0 1 1 1 1 1 2 2 2 2
13 13 11 11 9 8 9 9 8 6 6 6 7 7 6 5 5 3 3 2 2 2 2 2 2 2 1 1 1 1 1 1 1 1 1 0 0 0 0 0 1 1 1 2 2 3 2 1 2
10 10 11 9 7 9 10 10 8 7 7 8 8 7 6 5 4 4 3 2 2 2 2 2 2 2 2 2 2 2 2 2 1 1 1 1 0 0 0 1 1 1 2 2 2 2 3 2 1
10 11 12 9 8 9 10 10 9 8 8 8 7 7 6 6 5 4 3 3 3 3 2 3 3 2 2 2 1 1 1 1 1 0 0 0 0 0 1 1 1 1 2 2 2 2 2 2 2
10 11 11 11 9 9 10 12 10 8 7 7 6 6 6 6 6 5 4 3 3 3 3 2 2 2 2 3 3 2 1 1 2 1 1 1 0 0 0 1 1 2 1 1 1 1 2 3 2
12 9 9 9 11 14 10 15 12 9 9 8 7 6 7 6 5 5 4 4 3 3 2 2 2 2 1 2 3 5 3 3 3 3 1 2 1 1 1 0 0 1 1 1 1 1 1 2 3
10 8 9 9 12 13 12 15 13 10 10 9 8 6 6 6 6 5 5 4 3 3 3 2 2 2 2 1 2 3 3 2 2 2 2 1 1 0 0 1 0 1 1 1 1 1 1 1 2
7 9 11 11 13 17 13 14 13 11 10 9 7 7 6 6 5 5 4 4 4 4 3 3 3 2 2 2 2 2 3 3 3 2 2 3 1 1 0 1 1 1 1 1 1 1 1 1 1
9 12 18 18 18 17 11 13 12 9 7 7 7 6 7 5 6 5 5 5 4 4 4 3 3 3 2 2 2 2 2 2 3 2 2 2 2 2 1 1 1 1 0 1 0 1 1 1 2
12 13 18 23 21 17 12 14 12 8 6 6 6 7 6 7 6 6 5 5 4 4 3 3 3 3 3 2 2 2 2 2 2 2 2 2 2 2 2 1 1 1 0 0 1 1 1 1 1
12 15 11 17 15 18 15 12 9 8 7 6 7 7 8 8 7 6 5 5 4 4 3 4 3 3 3 2 2 2 2 2 2 2 1 1 1 1 1 1 1 1 1 1 1 2 2 1 1
11 9 16 16 22 22 17 15 14 11 9 8 7 7 7 7 7 6 6 5 4 4 4 3 3 3 3 3 3 2 2 1 2 1 2 1 1 1 1 1 1 1 1 1 1 1 1 1 1
12 15 13 14 16 20 21 16 10 11 9 8 7 7 7 6 6 6 6 5 5 4 3 3 3 3 3 2 3 2 2 2 1 2 2 2 1 1 1 1 1 1 1 1 1 1 1 2 2
10 13 13 18 19 17 18 17 8 9 9 7 7 6 6 7 7 6 6 5 5 4 4 4 3 3 3 3 2 2 2 2 2 2 2 1 2 1 1 1 1 1 1 1 1 2 2 2 2